Simultaneous Nadir Overpasses (SNOs) Predictions

Prediction of SNOs between NOAA-19 and TERRA Satellite Orbit:

Table of predicted SNOs for the next 14.0 days since TLE Epoch: 12/5/2020
Index Date (NOAA-19) Time (NOAA-19) Lat,Lon (NOAA-19) SZA (NOAA-19 ) Date (TERRA) Time (TERRA) Lat,Lon (TERRA) SZA (TERRA ) Distance(km) Time Diff (sec)
1 12/06/2020 23:53:31 -79.88, 32.76 75.97 12/06/2020 23:53:23 -79.89, 32.65 75.98 2.27 8
2 12/09/2020 05:26:42 79.90, 129.34 104.24 12/09/2020 05:27:05 79.90, 129.28 104.24 1.16 23
3 12/09/2020 06:17:45 -79.89, -63.26 75.76 12/09/2020 06:16:33 -79.86, -63.35 75.82 3.11 72
4 12/11/2020 10:59:59 -79.90,-133.95 75.59 12/11/2020 11:00:48 -79.90,-134.10 75.59 2.96 49
5 12/11/2020 11:50:56 79.90, 33.44 104.42 12/11/2020 11:50:14 79.90, 33.53 104.42 2.05 42
6 12/13/2020 17:24:13 -79.91, 129.99 75.45 12/13/2020 17:23:57 -79.91, 130.14 75.45 2.90 16
7 12/15/2020 22:57:25 79.92,-133.37 104.65 12/15/2020 22:57:39 79.90,-133.34 104.63 2.63 14
8 12/18/2020 04:30:40 -79.92, -36.54 75.30 12/18/2020 04:31:21 -79.94, -36.48 75.26 2.26 41



Historial Predications of SNOs between NOAA-19 and TERRA
